TIME,DELAY(SENSOR),PRES,T(CTD),SAL,OXYGEN,RAWTEMP,T(OPTODE),TCPHASE,FLUOR,BETA(BETA700),BETA(BETA412),BETA(BETA440),CDOM,C(CSC),ED(ED411.90),ED(ED443.80),ED(ED489.40),ED(ED554.70),LU(LU412.20),LU(LU443.80),LU(LU489.40),LU(LU555.00),COMP,TILTX,TILTX(TILTY),CHECK
1348672629,5803,494.4100036621094000,17.4862995147705080,36.4668998718261700,233.8291931152343800,172.2769927978515600,17.4843006134033200,31.0196609497070300,50,100,94,74,59,13199,2146955373,2147512749,2147268050,2147465755,2147086363,2146960978,2147653138,2147118016,2381,-1,8,27161
1348672744,5803,483.2900085449219000,17.5428009033203120,36.4763984680175800,234.8567962646484400,170.2781982421875000,17.5446090698242200,30.9427394866943360,50,103,95,74,59,13193,2146954441,2147510336,2147267401,2147467090,2147087972,2146957421,2147654802,2147118043,2234,-1,8,42414
1348672861,5805,472.0199890136719000,17.6198005676269530,36.4898986816406250,234.6636962890625000,167.8999938964843800,17.6163806915283200,30.9199905395507800,50,102,94,74,58,13201,2146953910,2147514176,2147267337,2147463734,2147086153,2146958610,2147654171,2147116882,2189,-1,8,19124
1348672976,5804,461.0799865722656000,17.6805992126464840,36.5029983520507800,235.9842987060547000,165.6923980712890600,17.6830005645751950,30.8264694213867200,50,100,94,74,58,13199,2146954413,2147516205,2147268754,2147463945,2147086912,2146956205,2147652507,2147117238,1991,-1,8,45199
1348673091,5804,450.2200012207031000,17.7525997161865230,36.5149002075195300,236.7460937500000000,163.4174957275390600,17.7516708374023440,30.7593898773193360,50,102,94,75,59,13199,2146954112,2147517101,2147267474,2147464338,2147086720,2146954221,2147649910,2147113252,2146,-1,8,20604
1348673208,5805,439.2600097656250000,17.8094997406005860,36.5242996215820300,237.2917938232422000,161.6302032470703000,17.8056201934814450,30.7095394134521500,50,102,94,75,58,13199,2146952649,2147516754,2147267465,2147463250,2147087286,2146955648,2147651757,2147119341,1469,-2,8,35407
1348673323,5807,428.6499938964844000,17.8530998229980470,36.5316009521484400,237.4945068359375000,160.1506958007812500,17.8502807617187500,30.6798095703125000,50,101,96,74,58,13199,2146955017,2147512886,2147268178,2147462125,2147089737,2146961865,2147651986,2147115894,881,-1,8,21272
1348673450,5802,417.1199951171875000,17.9178009033203120,36.5410003662109400,237.7017059326172000,158.0321960449218800,17.9142494201660160,30.6416797637939450,50,100,95,75,59,13196,2146953225,2147513499,2147267355,2147463323,2147088100,2146962139,2147649755,2147118692,3423,-1,8,51539
1348673568,5806,406.4700012207031000,17.9561996459960940,36.5471992492675800,237.4373931884765600,156.7873992919922000,17.9518394470214840,30.6376495361328120,50,103,96,75,58,13195,2146953261,2147512859,2147263286,2147461686,2147089078,2146956973,2147653668,2147119725,2896,-1,8,6541
1348673695,5804,395.1199951171875000,18.0042991638183600,36.5522003173828100,237.2608947753906200,155.2308959960937500,17.9988403320312500,30.6252708435058600,50,101,96,75,59,13198,2146953545,2147515026,2147263570,2147460699,2147089810,2146956242,2147653312,2147119652,2308,-2,8,63238
1348673824,5803,383.7000122070312500,18.0328006744384770,36.5570983886718750,237.7810974121093800,154.2050018310547000,18.0298194885253900,30.5866508483886720,50,101,95,76,58,13197,2146957010,2147515044,2147267163,2147461924,2147089380,2146958619,2147649846,2147120859,2333,-1,8,19743
1348673951,5806,372.5599975585937500,18.0830001831054700,36.5616989135742200,236.4273986816406200,152.4822998046875000,18.0818500518798830,30.6285095214843750,51,102,95,74,57,13197,2146953965,2147514276,2147265499,2147458816,2147088539,2146960219,2147647862,2147119424,2082,-2,8,11169
1348674078,5808,361.5599975585937500,18.1343002319335940,36.5682983398437500,236.1195983886718800,150.8278045654297000,18.1318302154541000,30.6208496093750000,51,101,95,74,58,13196,2146953764,2147512694,2147265060,2147461878,2147086409,2146956790,2147649947,2147120813,1735,-1,8,55573
1348674208,5805,350.5899963378906000,18.2035999298095700,36.5758018493652340,235.3316040039062500,148.6224975585937500,18.1984596252441400,30.6293697357177730,51,101,95,75,58,13193,2146956498,2147516955,2147268772,2147458980,2147087433,2146962084,2147655369,2147122688,1649,-1,8,53235
1348674347,5806,339.1199951171875000,18.2509002685546880,36.5812988281250000,234.1502990722656200,146.9980010986328000,18.2475395202636720,30.6646900177001950,50,103,95,75,57,13194,2146952612,2147513490,2147266413,2147459995,2147091163,2146963236,2147650102,2147127186,1527,-2,8,10293
1348674476,5806,328.7699890136719000,18.3073005676269530,36.5872001647949200,233.5821990966797000,145.1696929931640600,18.3027896881103500,30.6678199768066400,51,102,95,76,59,13194,2146955264,2147513380,2147265892,2147458742,2147090130,2146963392,2147653933,2147123611,822,-1,8,11361
1348674615,5808,317.7999877929687500,18.3931999206542970,36.5934982299804700,232.1201934814453000,142.3325958251953000,18.3885307312011720,30.7008094787597660,50,103,96,75,59,13192,2146953398,2147514523,2147263177,2147458697,2147087222,2146962779,2147654244,2147124123,317,-1,8,16332
1348674775,5806,304.7500000000000000,18.5105991363525400,36.6007995605468750,229.9490966796875000,138.5390014648437500,18.5032196044921880,30.7566299438476560,51,103,96,75,58,13188,2146954368,2147513883,2147264630,2147456000,2147089380,2146963209,2147656164,2147128301,259,-1,8,15147
1348674890,5809,293.3900146484375000,18.5625000000000000,36.6001014709472660,228.5328979492187500,136.7037963867187500,18.5587005615234380,30.8022003173828120,50,100,95,75,58,13192,2146952091,2147517403,2147262592,2147457325,2147087780,2146968786,2147657618,2147124470,72,-1,8,6160
1348675005,5802,281.5000000000000000,18.6348991394042970,36.5954017639160160,228.7001037597656200,134.0856018066406200,18.6378803253173830,30.7589893341064450,51,100,94,74,57,13193,2146955940,2147510857,2147266989,2147456868,2147088713,2146964580,2147657033,2147124790,2832,-1,9,48450
1348675111,5806,270.6300048828125000,18.8178997039794920,36.6082000732421900,227.9129028320312500,128.0455932617187500,18.8206100463867200,30.7176799774169920,51,101,96,75,59,13192,2146954395,2147513810,2147266194,2147457261,2147092909,2146971474,2147656210,2147127158,2543,-2,8,32221
1348675214,5805,260.0700073242187500,18.9552993774414060,36.6082992553710940,228.7642059326172000,123.9468002319336000,18.9446601867675780,30.6211795806884770,51,101,96,75,59,13190,2146956452,2147514523,2147264667,2147457645,2147090075,2146968850,2147656978,2147131638,2412,-1,8,9586
1348675329,5806,248.5599975585937500,18.9610996246337900,36.5595016479492200,237.9017944335937500,123.5417022705078100,18.9569301605224600,30.1751403808593750,51,101,95,76,57,13186,2146955492,2147515474,2147266075,2147459145,2147082843,2146986157,2147692827,2147130395,2606,-1,8,48040
1348675448,5806,238.5099945068359400,19.0328006744384770,36.5617980957031250,244.6280975341797000,121.1067962646484400,19.0306491851806640,29.8319606781005860,51,101,96,74,57,13195,2146954587,2147514221,2147268178,2147456786,2147082413,2146995163,2147721014,2147129170,2902,-2,9,29015
1348675611,5806,228.2200012207031200,19.1681003570556640,36.5760993957519500,243.5915985107422000,116.7503967285156200,19.1625804901123050,29.8223705291748050,51,102,95,75,57,13196,2146953627,2147511250,2147266560,2147456036,2147090276,2147002450,2147737206,2147130752,2462,-2,9,29462
1348675779,5805,216.0899963378906200,19.2959003448486330,36.5866012573242200,246.0052032470703000,112.5972976684570300,19.2884006500244140,29.6587295532226560,53,103,95,77,57,13190,2146952713,2147515328,2147268544,2147453714,2147085732,2147021568,2147774939,2147132937,2405,-2,9,33010
1348675906,5806,205.3300018310547000,19.3003005981445300,36.5713005065918000,248.1459960937500000,112.3302993774414000,19.2964897155761720,29.5593299865722660,57,107,95,75,57,13182,2146951131,2147515730,2147268397,2147454857,2147092717,2147043574,2147818102,2147135360,1759,-2,9,20033
1348676017,5805,196.3899993896484400,19.3827991485595700,36.5819015502929700,246.8320007324218800,109.5008010864257800,19.3822498321533200,29.5814094543457030,64,108,95,76,57,13181,2146951744,2147517339,2147274523,2147456274,2147093385,2147069568,2147864009,2147136466,1233,-1,9,38881
1348676072,5806,192.3500061035156200,19.4333992004394530,36.5901985168457000,244.5415039062500000,108.1326980590820300,19.4237194061279300,29.6669406890869140,66,108,96,75,57,13176,2146953097,2147515648,2147273892,2147454381,2147098852,2147075008,2147889060,2147142162,1089,-1,8,58527
1348676127,5806,188.3500061035156200,19.4108009338378900,36.5775985717773440,246.3717956542968800,108.6435012817382800,19.4082393646240230,29.5910091400146500,69,108,98,75,57,13176,2146951908,2147517330,2147274468,2147454546,2147087798,2147095936,2147920137,2147141906,984,-1,8,27982
1348676182,5807,184.3699951171875000,19.4225997924804700,36.5738983154296900,248.7494964599609400,108.2994995117187500,19.4186592102050780,29.4802703857421880,74,109,97,76,57,13175,2146956361,2147519378,2147273746,2147452900,2147098761,2147111725,2147950436,2147142701,850,-1,9,46351
1348676237,5805,180.3699951171875000,19.4654006958007800,36.5772018432617200,249.8744964599609400,106.7451019287109400,19.4657897949218750,29.4103507995605470,76,109,97,76,56,13154,2146953600,2147520411,2147277860,2147452242,2147094089,2147136082,2147992914,2147145782,787,-2,8,9259
1348676292,5808,176.4600067138672000,19.5121002197265620,36.5856018066406250,249.4891052246093800,105.3479995727539000,19.5081596374511720,29.4092807769775400,75,109,96,76,57,13171,2146953252,2147518866,2147279789,2147452964,2147109376,2147154486,2148028598,2147148251,225,-1,8,56640
1348676371,5805,171.2400054931640600,19.5974998474121100,36.5970001220703100,248.8677978515625000,102.7685012817382800,19.5863895416259770,29.4036006927490230,78,109,95,76,57,13169,2146955620,2147519972,2147283126,2147453613,2147111561,2147188352,2148095140,2147153316,3383,-1,9,60995
1348676438,5804,167.3300018310547000,19.6331005096435550,36.6030998229980500,248.8374023437500000,101.3276977539062500,19.6300907135009770,29.3864192962646500,80,109,96,75,57,13169,2146951232,2147523044,2147282825,2147453284,2147118628,2147222162,2148152338,2147156141,3312,-1,9,53305
1348676505,5804,163.4799957275390600,19.6683998107910160,36.5989990234375000,250.4010009765625000,100.2841033935546900,19.6617507934570300,29.3038005828857420,78,108,98,76,59,13166,2146955309,2147524617,2147288621,2147451053,2147120064,2147264676,2148217801,2147164123,3462,-1,9,63884
1348676584,5805,158.8899993896484400,19.6854991912841800,36.5890998840332000,254.9687957763672000,99.5844802856445300,19.6829795837402340,29.0960597991943360,78,107,95,77,58,13167,2146955145,2147523702,2147294500,2147452306,2147139227,2147319241,2148327542,2147171977,523,-1,9,5202
1348676653,5807,155.0099945068359400,19.7227993011474600,36.5871009826660160,258.1546936035156000,98.4158172607421900,19.7184505462646500,28.9448299407959000,77,108,96,75,59,13165,2146956909,2147525421,2147299209,2147451794,2147150070,2147381074,2148416667,2147173833,371,-1,8,51743
1348676720,5808,151.3300018310547000,19.7851009368896500,36.5924987792968750,260.6051940917969000,96.3068466186523400,19.7824592590332030,28.8145503997802730,76,109,96,75,59,13162,2146958290,2147530852,2147301101,2147450450,2147167469,2147446592,2148523529,2147181604,52,-1,9,55913
1348676799,5804,146.9600067138672000,19.8640995025634770,36.6010017395019500,261.1679992675781000,93.8089065551757800,19.8582897186279300,28.7594108581542970,78,108,96,75,58,13163,2146958692,2147536182,2147308781,2147450816,2147196169,2147551232,2148681709,2147194267,291,-1,9,3668
1348676866,5807,143.3600006103515600,19.9726009368896500,36.6071014404296900,260.9233093261719000,90.2707595825195300,19.9657402038574220,28.7245903015136720,79,108,94,76,58,13157,2146960320,2147536356,2147317257,2147450514,2147227675,2147642560,2148831488,2147204708,794,-1,8,35167
1348676945,5805,139.6699981689453000,20.1394004821777340,36.6259994506835940,261.1541137695312500,84.7862091064453100,20.1323795318603500,28.6456394195556640,84,109,96,77,58,13152,2146960493,2147542326,2147327177,2147456045,2147257645,2147768978,2149005878,2147220004,543,-2,9,22187
1348677039,5809,135.6900024414062500,20.2812995910644530,36.6440010070800800,261.1881103515625000,80.1933670043945300,20.2720108032226560,28.5862998962402340,82,109,98,76,58,13153,2146963657,2147547008,2147334262,2147452598,2147317613,2147929700,2149212187,2147235876,3528,-1,9,50269
1348677142,5808,131.5399932861328000,20.3789997100830080,36.6482009887695300,262.1430053710937500,77.4688491821289000,20.3548908233642580,28.5122604370117200,82,109,96,76,57,13148,2146965933,2147554203,2147342162,2147449810,2147393353,2148139840,2149471478,2147256978,2726,-2,9,24702
1348677233,5804,127.9899978637695300,20.4267997741699220,36.6164016723632800,266.2706909179687500,75.3414916992187500,20.4196090698242200,28.3160591125488280,82,110,98,77,57,13144,2146972214,2147562852,2147352576,2147446838,2147480457,2148354048,2149765632,2147280868,2390,-2,9,26039
1348677344,5803,123.2200012207031200,20.8089008331298830,36.6829986572265600,266.5880126953125000,63.3811302185058600,20.7838401794433600,28.1534595489501950,78,111,97,76,57,13141,2146978066,2147580224,2147373357,2147449307,2147636589,2148747702,2150232850,2147320173,2833,-1,9,57831
1348677423,5805,119.1900024414062500,20.8407993316650400,36.6558990478515600,266.3575134277344000,61.6382217407226560,20.8369693756103500,28.1411495208740230,88,115,98,77,56,13133,2146982637,2147593645,2147403456,2147452269,2147819154,2149150226,2150719250,2147358683,3376,-1,9,58408
1348677502,5807,115.1999969482421900,21.1338005065917970,36.7018013000488300,266.1044006347656000,52.5608291625976560,21.1138706207275400,28.0383090972900400,83,111,98,76,55,13130,2146993252,2147607478,2147419346,2147451437,2148020416,2149598546,2151228681,2147402624,3014,-1,9,23190
1348677581,5804,111.2500000000000000,21.2285995483398440,36.7173995971679700,267.1463012695312500,49.2403106689453100,21.2152500152587900,27.9550495147705080,83,113,99,78,57,13134,2147007113,2147634971,2147457636,2147452489,2148311186,2150168109,2151878893,2147455570,3450,-2,9,40313
1348677651,5809,107.6600036621093800,21.3274993896484380,36.7294006347656250,267.6859130859375000,46.0496215820312500,21.3127098083496100,27.8939304351806640,87,110,97,78,56,13129,2147018697,2147659410,2147504886,2147454573,2148635547,2150813632,2152611510,2147518912,61,-2,9,15211
1348677742,5808,103.4599990844726600,21.4768009185791000,36.7294006347656250,268.2983093261719000,41.2706108093261700,21.4587802886962900,27.8102798461914060,87,113,97,76,55,13127,2147036013,2147692050,2147544603,2147455387,2149064685,2151619456,2153463451,2147592073,111,-2,9,29155
1348677845,5808,100.3799972534179700,21.6471004486084000,36.7238006591796900,270.3323059082031000,35.8198890686035160,21.6255092620849600,27.6621303558349600,92,114,97,77,56,13118,2147055698,2147719872,2147593673,2147457225,2149462518,2152317504,2154191030,2147658029,374,-2,9,4141
1348677900,5806,99.4800033569336000,21.7332000732421880,36.7270011901855500,271.6112976074219000,33.0403900146484400,21.7105903625488280,27.5777397155761720,92,118,99,77,55,13115,2147060827,2147725010,2147597138,2147456521,2149583104,2152520512,2154381842,2147676864,200,-2,9,22416
1348678015,5805,96.7099990844726600,21.8227996826171880,36.7361984252929700,274.0299987792969000,29.5694007873535160,21.8168792724609380,27.4407100677490230,93,115,99,77,55,13124,2147083748,2147756918,2147609316,2147457737,2150127707,2153400886,2155242157,2147758646,3246,-2,9,21359
1348678070,5803,94.5599975585937500,21.9127006530761720,36.7468986511230500,274.5201110839844000,26.7640399932861330,21.9028396606445300,27.3872203826904300,87,116,99,77,55,13117,2147101412,2147780882,2147632676,2147461659,2150594395,2154159049,2155997504,2147827309,3027,-2,9,55000
1348678125,5809,92.3199996948242200,21.9465007781982420,36.7486000061035160,275.1152038574219000,25.4191303253173830,21.9440593719482420,27.3478202819824220,90,115,98,77,55,13117,2147130121,2147825554,2147712832,2147461376,2151167350,2155077458,2156952886,2147910674,31,-1,9,13983
1348678180,5805,89.9199981689453100,22.0746002197265620,36.7430992126464840,274.9721069335937500,20.9983100891113280,22.0796203613281250,27.2994194030761720,92,116,98,78,56,13107,2147156763,2147870034,2147805440,2147467117,2151829650,2156114624,2158003922,2148013238,465,-2,9,34243
1348678235,5804,87.9000015258789000,22.1681003570556640,36.7411003112793000,277.0922851562500000,18.4762802124023440,22.1570091247558600,27.1871891021728500,94,115,98,77,54,13098,2147179904,2147890761,2147771465,2147467465,2152343122,2156851254,2158647113,2148080283,3318,-2,9,59102
1348678314,5805,85.0199966430664000,22.3792991638183600,36.7388000488281250,277.1101074218750000,9.7450733184814450,22.4251708984375000,27.0803604125976560,94,117,100,79,55,13105,2147221056,2147942144,2147804141,2147468004,2153460635,2158533522,2160317193,2148235638,2366,-1,9,59023
1348678369,5804,82.6600036621093800,22.5471000671386720,36.7100982666015600,278.3989868164062500,6.2923817634582520,22.5313205718994140,26.9894790649414060,96,122,99,78,55,13096,2147258578,2147993654,2147857947,2147466038,2154339858,2159784521,2161512274,2148357677,2153,-1,9,43097
1348678424,5806,80.7799987792968800,22.6469001770019530,36.6748008728027340,279.3713989257812500,2.9371531009674072,22.6345500946044920,26.9120903015136720,95,117,99,76,54,13091,2147291117,2148034907,2147906715,2147470692,2155171218,2160996461,2162723858,2148483702,2122,-2,9,1613
1348678479,5804,79.4599990844726600,22.8304004669189450,36.6726989746093750,279.0285949707031000,-1.9721659421920776,22.7856998443603500,26.8657798767089840,102,118,96,77,55,13085,2147314477,2148070848,2147960502,2147474294,2155615241,2161571702,2163345088,2148556315,1584,-2,9,41132
1348678618,5806,77.2200012207031200,23.0933990478515620,36.6687011718750000,280.5728149414062500,-11.4318304061889650,23.0773391723632800,26.6936893463134770,99,121,98,78,53,13077,2147379620,2148170477,2148189211,2147496000,2156717933,2163086070,2164761115,2148720594,606,-2,9,29437
1348678685,5806,75.2600021362304700,23.3729000091552730,36.6370010375976560,272.8670959472656000,-19.4740200042724600,23.3257102966308600,26.8893394470214840,102,125,100,79,55,13062,2147427456,2148236141,2148270354,2147508086,2157960173,2164781165,2166317622,2148892461,681,-1,9,8744
1348678800,5802,73.8899993896484400,23.4155998229980470,36.6391983032226560,260.3947143554687500,-21.9109706878662100,23.4010505676269530,27.3539695739746100,112,126,100,80,56,13050,2147462189,2148278107,2148328548,2147511570,2158791305,2165889014,2167264905,2149017508,678,-2,9,49205
1348678938,5806,71.9700012207031200,23.5156002044677730,36.6539993286132800,251.4246063232422000,-25.2108306884765620,23.5031204223632800,27.6860599517822270,110,127,100,78,55,13048,2147525760,2148355812,2148403309,2147514020,2160460379,2168187401,2169563538,2149283849,945,-1,9,43676
1348678993,5807,69.7600021362304700,23.6135005950927730,36.6595993041992200,245.7552947998047000,-28.2840003967285160,23.5982494354248050,27.8916397094726560,110,128,99,80,55,13052,2147573065,2148408566,2148336429,2147494994,2162107264,2170522971,2171785883,2149552073,1756,-2,9,51764
1348679048,5805,67.8000030517578100,23.7597999572753900,36.6281013488769500,242.3735961914062500,-32.6713905334472660,23.7341594696044920,27.9858608245849600,108,127,100,78,58,13050,2147650084,2148505810,2148469549,2147507410,2163747584,2172687414,2173867465,2149830244,1483,-2,9,50812
1348679115,5805,66.4000015258789000,23.8535003662109380,36.5847015380859400,245.2991027832031200,-36.0066490173339840,23.8375606536865230,27.8164901733398440,99,125,101,77,55,13056,2147728466,2148604836,2148649097,2147531638,2164852461,2174091099,2175115328,2150005266,1119,-2,9,57865
1348679242,5802,64.5199966430664000,24.1692008972167970,36.5307998657226560,249.5485992431640600,-46.3162384033203100,24.1576595306396500,27.5071296691894530,88,127,101,80,54,13065,2147872585,2148787456,2148930029,2147579328,2166986212,2176670765,2177103277,2150265737,589,-2,9,20163
1348679537,5807,62.1100006103515600,24.7425003051757800,36.4782981872558600,256.4336853027344000,-63.8172111511230500,24.7027301788330080,27.0068397521972660,83,131,100,78,52,13063,2148076608,2149017709,2149151259,2147600987,2171231122,2181664018,2180869476,2150771099,547,-2,9,65268
1348679652,5809,60.9500007629394500,25.0301990509033200,36.4595985412597660,250.9414062500000000,-73.6926879882812500,25.0112800598144530,27.1151103973388670,82,128,102,79,53,13060,2148168886,2149115209,2149208009,2147595492,2173178322,2183994706,2182472091,2150951478,425,-2,9,59540
1348680007,5808,58.4900016784668000,25.2064990997314450,36.4499015808105500,244.4179992675781200,-79.9580230712890600,25.2074203491210940,27.3164901733398440,78,127,101,79,56,13061,2148373494,2149287350,2149075593,2147545874,2179365010,2191517421,2188031890,2151542171,2729,-2,9,32393
1348680145,5807,56.1199989318847660,25.4575004577636720,36.4199981689453100,242.4192962646484400,-87.8526763916015600,25.4549903869628900,27.3067893981933600,77,126,100,79,53,13053,2148664722,2149602450,2149324781,2147563776,2185659044,2198810377,2193250496,2152207204,2746,-2,9,53391
1348680299,5805,53.1899986267089840,25.6984996795654300,36.3599014282226560,245.9472961425781200,-95.2293472290039000,25.6867694854736330,27.0650901794433600,74,130,98,79,54,13051,2149037860,2149971620,2149610011,2147586770,2193278930,2207207881,2199278473,2153032539,2696,-2,9,62584
1348680334,5805,52.8499984741210940,25.7586994171142580,36.3644981384277340,246.1235961914062500,-97.0236968994140600,25.7432193756103500,27.0358104705810550,72,127,102,80,52,13042,2149098057,2150047396,2149662884,2147586230,2195077696,2209199506,2200842523,2153223753,2295,-2,9,2069
1348680496,5806,50.8199996948242200,26.1541004180908200,36.3554992675781250,239.8516998291015600,-109.8090972900390600,26.1461791992187500,27.1515808105468750,73,129,100,79,53,13039,2149467108,2150443675,2150071533,2147628736,2202876214,2217373430,2206885019,2154203126,1580,-2,9,1269
1348680578,5805,48.7400016784668000,26.2992992401123050,36.3390007019043000,238.3838958740234400,-113.9243011474609400,26.2761707305908200,27.1660194396972660,71,130,101,79,55,13040,2149707172,2150661650,2150145682,2147633316,2209295963,2224512329,2211800740,2154964900,2202,-2,9,59593
1348680816,5807,46.9399986267089840,26.9361991882324220,36.3017005920410160,240.1634063720703000,-132.3878021240234400,26.8612003326416000,26.8637008666992200,70,134,102,80,54,13037,2150182720,2151115355,2150523300,2147669312,2217946230,2232871094,2217519213,2155862025,1873,-2,9,5484
1348680909,5804,45.9300003051757800,27.3076992034912100,36.2580986022949200,241.1298980712890600,-141.2420043945312500,27.1428394317626950,26.7146492004394530,71,126,101,80,53,13029,2150415058,2151376100,2151082971,2147840493,2219659364,2234234843,2218529709,2156114496,1097,-1,10,15642
1348681086,5808,43.8899993896484400,27.3920001983642580,36.2402992248535160,240.5122070312500000,-147.3950958251953000,27.3389797210693360,26.6669006347656250,67,126,101,78,57,13035,2150724498,2151584073,2150982564,2147772059,2226790162,2241622006,2223068370,2156897344,40,-2,9,37964
1348681430,5808,41.5699996948242200,27.4792003631591800,36.2014999389648440,235.3932037353515600,-152.8804931640625000,27.5141391754150400,26.8242893218994140,63,120,99,78,54,13052,2151388553,2152196370,2151294774,2147745837,2242297078,2257266861,2234092690,2158885485,1809,-2,9,25734
1348681523,5805,39.9500007629394500,27.5391006469726560,36.1697998046875000,234.5569000244140600,-154.3865966796875000,27.5622806549072270,26.8431205749511720,61,120,98,77,57,13066,2151962185,2152719021,2151868818,2147900416,2251636251,2265619766,2239355026,2159542692,1292,-2,9,3750